Current Weather Conditions
Home Hang gliding Paragliding Powered Parachute Powered Paragliding Skydiving Ultralight Weather Aviation Shirts
WEATHER DATA:
Weather observations for the past three days for
Alpena, Alpena County Regional Airport
Imperial (Metric)
Date Time (edt) Wind (mph) Vis. (mi.) Weather Sky Cond. Temperature (F) Relative Humidity Wind Chill (F) Heat Index (F) Pressure Precipitation (in)
Air Dwpt 6 hour altimeter (in) sea level (mb) 1 hr 3 hr 6 hr
Max. Min.
24 21:54 N 7 10.00 Fair CLR 64 59 84% 30.13 1020.2
24 20:54 NW 5 10.00 Fair CLR 66.9 57.9 73% 30.12 1019.8
24 19:54 N 9 10.00 A Few Clouds FEW038 71.1 57 73 64.9 61% 30.11 1019.4
24 18:54 NW 12 10.00 Fair CLR 72 55.9 57% 30.1 1019.1
24 16:54 NW 8 10.00 Mostly Cloudy FEW023 SCT029 BKN065 70 60.1 71% 30.09 1018.9
24 15:54 NW 10 10.00 Overcast BKN034 OVC046 68 60.1 76% 30.1 1019.2
24 14:54 NW 7 10.00 Overcast FEW013 BKN018 OVC033 66 60.1 81% 30.09 1018.9
24 13:54 NW 13 10.00 Overcast SCT012 BKN017 OVC023 64.9 61 69.1 64 87% 30.09 1018.8 0.02
24 12:54 NW 8 10.00 Overcast SCT014 BKN022 OVC030 66.9 61 81% 30.08 1018.4
24 11:54 NW 9 10.00 Overcast SCT010 BKN014 OVC045 66 63 90% 30.07 1018.2 0.02
24 10:54 W 7 10.00 Overcast FEW025 OVC044 66.9 62.1 84% 30.06 1017.8
24 09:54 NW 9 10.00 Overcast SCT011 BKN028 OVC037 66 62.1 87% 30.05 1017.5
24 08:54 NW 9 10.00 Overcast BKN007 OVC029 64.9 63 93% 30.04 1017.1
24 07:54 N 9 10.00 Overcast OVC007 64 62.1 64.9 63 93% 30.03 1016.6 0.03
24 06:54 NW 7 10.00 Overcast BKN008 OVC015 64 63 96% 30.02 1016.3
24 05:54 NW 7 10.00 Overcast OVC007 64 63 96% 29.99 1015.5
24 04:54 N 6 10.00 Overcast SCT008 BKN019 OVC080 64 63 96% 29.98 1014.9 0.03
24 03:54 N 10 10.00 Overcast OVC011 64 63 96% 29.97 1014.8
24 02:54 N 6 10.00 Overcast OVC007 64 63 96% 29.98 1014.9 0.03
24 01:54 NE 13 3.00 Rain Fog/Mist FEW006 BKN041 OVC065 63 62.1 69.1 63 97% 29.98 1014.9 1.2 2.33
24 00:54 NE 10 G 26 1.00 Thunderstorm in Vicinity Heavy Rain Fog/Mist SCT007 OVC011 64 63 96% 29.98 1015.0 0.9
23 23:54 E 12 4.00 Heavy Rain Fog/Mist SCT006 BKN015 OVC030 66 64.9 96% 29.98 1014.8 0.16
23 22:54 NE 7 4.00 Rain Fog/Mist FEW018 SCT024 OVC050 66 64 93% 30 1015.7 0.06 0.07
23 21:54 NE 8 10.00 Overcast BKN018 OVC085 66 64 93% 30.01 1015.9 0.01
23 20:54 NE 7 10.00 Overcast OVC007 68 66 93% 30.01 1016.2
23 19:54 E 5 10.00 Overcast OVC007 69.1 66.9 75.9 68 93% 30 1015.7 0.02 0.04
23 18:54 NE 7 6.00 Light Rain Fog/Mist BKN100 OVC120 69.1 66.9 93% 30.01 1016.3
23 17:54 E 5 10.00 Light Rain SCT017 BKN070 OVC100 69.1 66.9 93% 30.02 1016.5 0.01
23 16:54 NE 8 10.00 Overcast SCT015 BKN045 OVC100 72 66 82% 30.01 1016.1 0.01
23 15:54 E 8 10.00 Partly Cloudy SCT014 73.9 66.9 79% 30.02 1016.3
23 14:54 E 9 10.00 Light Rain FEW027 BKN042 OVC100 72 68 87% 30.02 1016.3 0.01
23 13:54 E 8 10.00 Fair CLR 75.9 66 78.1 64.9 72% 77 30.02 1016.3
23 12:54 E 10 10.00 Mostly Cloudy FEW045 BKN050 BKN065 75.9 66 72% 77 30.02 1016.4
23 11:54 Vrbl 3 10.00 Partly Cloudy FEW025 SCT030 75.9 64.9 69% 78 30.02 1016.3
23 10:54 NE 3 10.00 Mostly Cloudy BKN018 73.9 66 76% 30.02 1016.5
23 09:54 Calm 10.00 Mostly Cloudy SCT014 BKN050 70 64.9 84% 30.02 1016.6
23 08:54 Calm 10.00 Overcast OVC013 69.1 64 84% 30.02 1016.3
23 06:54 S 3 9.00 Mostly Cloudy FEW015 SCT055 BKN070 61 59 93% 30 1015.9
23 05:54 Calm 10.00 Mostly Cloudy FEW017 SCT040 BKN055 62.1 59 90% 30 1015.6
23 04:54 S 5 10.00 Mostly Cloudy BKN060 BKN080 62.1 59 90% 29.99 1015.4
23 03:54 Calm 10.00 Mostly Cloudy BKN090 61 57.9 90% 29.99 1015.3
23 02:54 Calm 10.00 Partly Cloudy SCT090 62.1 57.9 86% 30 1015.6
23 01:54 Calm 10.00 Fair CLR 62.1 59 71.1 62.1 90% 30 1015.7
23 00:54 Calm 10.00 Mostly Cloudy BKN037 BKN095 64.9 60.1 84% 30.01 1016.1
22 23:54 Calm 10.00 Mostly Cloudy BKN043 66.9 60.1 79% 30.01 1016.0
22 22:54 Calm 10.00 Overcast BKN044 OVC055 64.9 59 81% 30.01 1016.1
22 21:54 Calm 10.00 Overcast OVC047 66.9 59 76% 30.01 1016.1
22 19:54 SE 10 10.00 Mostly Cloudy SCT043 BKN070 71.1 55 77 71.1 57% 29.99 1015.5
22 18:54 E 9 10.00 Fair CLR 72 54 53% 29.99 1015.5
22 17:54 E 9 10.00 Fair CLR 73.9 55 52% 29.99 1015.4
22 15:54 SE 9 10.00 Fair CLR 75.9 54 47% 78 30.02 1016.4
22 14:54 E 9 10.00 Fair CLR 75.9 57 52% 78 30.03 1016.9
22 13:54 E 6 10.00 Mostly Cloudy SCT041 BKN050 75.9 59 77 59 56% 78 30.04 1017.1
22 12:54 SE 7 10.00 Mostly Cloudy SCT046 BKN060 73.9 59 60% 30.06 1017.7
22 11:54 Vrbl 3 10.00 Overcast SCT044 OVC050 73 54 51% 30.07 1018.3
22 10:54 Calm 10.00 Mostly Cloudy SCT043 BKN050 71.1 51.1 49% 30.08 1018.4
22 09:54 Calm 10.00 Overcast BKN044 OVC055 68 55 63% 30.09 1018.8
22 08:54 W 3 10.00 Fair CLR 66 55.9 70% 30.08 1018.6
22 07:54 Calm 10.00 Fair CLR 59 55 59 51.1 87% 30.08 1018.4
22 06:54 Calm 10.00 Fair CLR 53.1 51.1 93% 30.07 1018.3
22 05:54 Calm 10.00 Mostly Cloudy BKN050 53.1 50 89% 30.08 1018.5
22 04:54 Calm 10.00 Fair CLR 51.1 50 96% 30.08 1018.7
22 03:54 Calm 10.00 Fair CLR 51.1 50 96% 30.1 1019.1
22 02:54 Calm 10.00 Fair CLR 54 52 93% 30.11 1019.4
22 01:54 Calm 10.00 Fair CLR 53.1 52 72 52 96% 30.11 1019.5
22 00:54 Calm 10.00 Fair CLR 55.9 53.1 90% 30.13 1020.1
21 23:54 Calm 10.00 Fair CLR 55.9 53.1 90% 30.13 1020.1
Date Time (edt) Wind (mph) Vis. (mi.) Weather Sky Cond. Air Dwpt Max. Min. Relative Humidity Wind Chill (F) Heat Index (F) altimeter (in) sea level (mb) 1 hr 3 hr 6 hr
6 hour
Temperature (F) Pressure Precipitation (in)
3 day Weather History for - KAPN
Weather observations for the past three days for
Alpena, Alpena County Regional Airport
Imperial (Metric)
Date Time (edt) Wind (mph) Vis. (mi.) Weather Sky Cond. Temperature (F) Relative Humidity Wind Chill (F) Heat Index (F) Pressure Precipitation (in)
Air Dwpt 6 hour altimeter (in) sea level (mb) 1 hr 3 hr 6 hr
Max. Min.
24 21:54 N 7 10.00 Fair CLR 64 59 84% 30.13 1020.2
24 20:54 NW 5 10.00 Fair CLR 66.9 57.9 73% 30.12 1019.8
24 19:54 N 9 10.00 A Few Clouds FEW038 71.1 57 73 64.9 61% 30.11 1019.4
24 18:54 NW 12 10.00 Fair CLR 72 55.9 57% 30.1 1019.1
24 16:54 NW 8 10.00 Mostly Cloudy FEW023 SCT029 BKN065 70 60.1 71% 30.09 1018.9
24 15:54 NW 10 10.00 Overcast BKN034 OVC046 68 60.1 76% 30.1 1019.2
24 14:54 NW 7 10.00 Overcast FEW013 BKN018 OVC033 66 60.1 81% 30.09 1018.9
24 13:54 NW 13 10.00 Overcast SCT012 BKN017 OVC023 64.9 61 69.1 64 87% 30.09 1018.8 0.02
24 12:54 NW 8 10.00 Overcast SCT014 BKN022 OVC030 66.9 61 81% 30.08 1018.4
24 11:54 NW 9 10.00 Overcast SCT010 BKN014 OVC045 66 63 90% 30.07 1018.2 0.02
24 10:54 W 7 10.00 Overcast FEW025 OVC044 66.9 62.1 84% 30.06 1017.8
24 09:54 NW 9 10.00 Overcast SCT011 BKN028 OVC037 66 62.1 87% 30.05 1017.5
24 08:54 NW 9 10.00 Overcast BKN007 OVC029 64.9 63 93% 30.04 1017.1
24 07:54 N 9 10.00 Overcast OVC007 64 62.1 64.9 63 93% 30.03 1016.6 0.03
24 06:54 NW 7 10.00 Overcast BKN008 OVC015 64 63 96% 30.02 1016.3
24 05:54 NW 7 10.00 Overcast OVC007 64 63 96% 29.99 1015.5
24 04:54 N 6 10.00 Overcast SCT008 BKN019 OVC080 64 63 96% 29.98 1014.9 0.03
24 03:54 N 10 10.00 Overcast OVC011 64 63 96% 29.97 1014.8
24 02:54 N 6 10.00 Overcast OVC007 64 63 96% 29.98 1014.9 0.03
24 01:54 NE 13 3.00 Rain Fog/Mist FEW006 BKN041 OVC065 63 62.1 69.1 63 97% 29.98 1014.9 1.2 2.33
24 00:54 NE 10 G 26 1.00 Thunderstorm in Vicinity Heavy Rain Fog/Mist SCT007 OVC011 64 63 96% 29.98 1015.0 0.9
23 23:54 E 12 4.00 Heavy Rain Fog/Mist SCT006 BKN015 OVC030 66 64.9 96% 29.98 1014.8 0.16
23 22:54 NE 7 4.00 Rain Fog/Mist FEW018 SCT024 OVC050 66 64 93% 30 1015.7 0.06 0.07
23 21:54 NE 8 10.00 Overcast BKN018 OVC085 66 64 93% 30.01 1015.9 0.01
23 20:54 NE 7 10.00 Overcast OVC007 68 66 93% 30.01 1016.2
23 19:54 E 5 10.00 Overcast OVC007 69.1 66.9 75.9 68 93% 30 1015.7 0.02 0.04
23 18:54 NE 7 6.00 Light Rain Fog/Mist BKN100 OVC120 69.1 66.9 93% 30.01 1016.3
23 17:54 E 5 10.00 Light Rain SCT017 BKN070 OVC100 69.1 66.9 93% 30.02 1016.5 0.01
23 16:54 NE 8 10.00 Overcast SCT015 BKN045 OVC100 72 66 82% 30.01 1016.1 0.01
23 15:54 E 8 10.00 Partly Cloudy SCT014 73.9 66.9 79% 30.02 1016.3
23 14:54 E 9 10.00 Light Rain FEW027 BKN042 OVC100 72 68 87% 30.02 1016.3 0.01
23 13:54 E 8 10.00 Fair CLR 75.9 66 78.1 64.9 72% 77 30.02 1016.3
23 12:54 E 10 10.00 Mostly Cloudy FEW045 BKN050 BKN065 75.9 66 72% 77 30.02 1016.4
23 11:54 Vrbl 3 10.00 Partly Cloudy FEW025 SCT030 75.9 64.9 69% 78 30.02 1016.3
23 10:54 NE 3 10.00 Mostly Cloudy BKN018 73.9 66 76% 30.02 1016.5
23 09:54 Calm 10.00 Mostly Cloudy SCT014 BKN050 70 64.9 84% 30.02 1016.6
23 08:54 Calm 10.00 Overcast OVC013 69.1 64 84% 30.02 1016.3
23 06:54 S 3 9.00 Mostly Cloudy FEW015 SCT055 BKN070 61 59 93% 30 1015.9
23 05:54 Calm 10.00 Mostly Cloudy FEW017 SCT040 BKN055 62.1 59 90% 30 1015.6
23 04:54 S 5 10.00 Mostly Cloudy BKN060 BKN080 62.1 59 90% 29.99 1015.4
23 03:54 Calm 10.00 Mostly Cloudy BKN090 61 57.9 90% 29.99 1015.3
23 02:54 Calm 10.00 Partly Cloudy SCT090 62.1 57.9 86% 30 1015.6
23 01:54 Calm 10.00 Fair CLR 62.1 59 71.1 62.1 90% 30 1015.7
23 00:54 Calm 10.00 Mostly Cloudy BKN037 BKN095 64.9 60.1 84% 30.01 1016.1
22 23:54 Calm 10.00 Mostly Cloudy BKN043 66.9 60.1 79% 30.01 1016.0
22 22:54 Calm 10.00 Overcast BKN044 OVC055 64.9 59 81% 30.01 1016.1
22 21:54 Calm 10.00 Overcast OVC047 66.9 59 76% 30.01 1016.1
22 19:54 SE 10 10.00 Mostly Cloudy SCT043 BKN070 71.1 55 77 71.1 57% 29.99 1015.5
22 18:54 E 9 10.00 Fair CLR 72 54 53% 29.99 1015.5
22 17:54 E 9 10.00 Fair CLR 73.9 55 52% 29.99 1015.4
22 15:54 SE 9 10.00 Fair CLR 75.9 54 47% 78 30.02 1016.4
22 14:54 E 9 10.00 Fair CLR 75.9 57 52% 78 30.03 1016.9
22 13:54 E 6 10.00 Mostly Cloudy SCT041 BKN050 75.9 59 77 59 56% 78 30.04 1017.1
22 12:54 SE 7 10.00 Mostly Cloudy SCT046 BKN060 73.9 59 60% 30.06 1017.7
22 11:54 Vrbl 3 10.00 Overcast SCT044 OVC050 73 54 51% 30.07 1018.3
22 10:54 Calm 10.00 Mostly Cloudy SCT043 BKN050 71.1 51.1 49% 30.08 1018.4
22 09:54 Calm 10.00 Overcast BKN044 OVC055 68 55 63% 30.09 1018.8
22 08:54 W 3 10.00 Fair CLR 66 55.9 70% 30.08 1018.6
22 07:54 Calm 10.00 Fair CLR 59 55 59 51.1 87% 30.08 1018.4
22 06:54 Calm 10.00 Fair CLR 53.1 51.1 93% 30.07 1018.3
22 05:54 Calm 10.00 Mostly Cloudy BKN050 53.1 50 89% 30.08 1018.5
22 04:54 Calm 10.00 Fair CLR 51.1 50 96% 30.08 1018.7
22 03:54 Calm 10.00 Fair CLR 51.1 50 96% 30.1 1019.1
22 02:54 Calm 10.00 Fair CLR 54 52 93% 30.11 1019.4
22 01:54 Calm 10.00 Fair CLR 53.1 52 72 52 96% 30.11 1019.5
22 00:54 Calm 10.00 Fair CLR 55.9 53.1 90% 30.13 1020.1
21 23:54 Calm 10.00 Fair CLR 55.9 53.1 90% 30.13 1020.1
Date Time (edt) Wind (mph) Vis. (mi.) Weather Sky Cond. Air Dwpt Max. Min. Relative Humidity Wind Chill (F) Heat Index (F) altimeter (in) sea level (mb) 1 hr 3 hr 6 hr
6 hour
Temperature (F) Pressure Precipitation (in)


Weather History V4.0 ©2002- Airsports Net